Simultaneous Nadir Overpasses (SNOs) Predictions

Prediction of SNOs between GOES-16 and NOAA-19 Satellite Orbit:

Table of predicted SNOs for the next 14.0 days since TLE Epoch: 2/3/2024
Index Date Time (GOES-16) GOES-16 Lat,Lon NOAA-19 Lat,Lon Distance(km) Time Diff (sec)
1 02/03/2024 13:55:27 0.00, -75.22 -0.39, -73.67 178.41 80
2 02/06/2024 02:17:51 -0.01, -75.20 -0.72, -78.35 359.54 80
3 02/07/2024 02:05:40 -0.01, -75.20 -0.07, -75.38 21.04 80
4 02/08/2024 01:50:49 -0.01, -75.21 0.65, -72.43 317.78 80
5 02/10/2024 14:13:13 0.03, -75.25 0.46, -77.12 213.25 80
6 02/11/2024 13:58:22 0.03, -75.26 -0.25, -74.16 126.20 80
7 02/12/2024 13:46:11 0.03, -75.27 -0.92, -71.19 465.73 80
8 02/14/2024 02:20:44 -0.03, -75.27 -0.88, -78.84 408.19 80
9 02/15/2024 02:08:34 -0.03, -75.28 -0.15, -75.88 68.31 80
10 02/16/2024 01:53:42 -0.02, -75.30 0.52, -72.92 271.68 80
